Weather History for KLIC - January, 2013

Change the Weather History Date:

Sunday, January 13, 2013

  Actual Average Record
Temperature  
Mean Temperature 0 °F -  
Max Temperature 15 °F - 60 °F (2003)
Min Temperature -15 °F - -15 °F (2013)
Degree Days  
Heating Degree Days 65    
Month to date heating degree days 609  
Cooling Degree Days 0    
Month to date cooling degree days 0  
Moisture  
Dew Point -5 °F    
Average Humidity 81    
Maximum Humidity 91    
Minimum Humidity 64    
Precipitation  
Precipitation 0.00 in - 0.09 in (2007)
Month to date precipitation 0.14  
Year to date precipitation 0.14  
Sea Level Pressure  
Sea Level Pressure 30.30 in    
Wind  
Wind Speed 3 mph (NNE)    
Max Wind Speed 9 mph    
Max Gust Speed 12 mph    
Visibility 10 miles    
Events      
T = Trace of Precipitation, MM = Missing Value Source: NWS Daily Summary

Daily Weather History Graph

Daily Weather History Graph

Search for Another Location

Airport or City:

Trip Planner

Search our weather history database for the weather conditions in past years. The results will help you decide how hot, cold, wet, or windy it might be!

Date:

Astronomy

Jan. 13, 2013 Rise Set
Actual Time 7:13 AM MST 4:54 PM MST
Civil Twilight 6:43 AM MST 5:23 PM MST
Nautical Twilight 6:10 AM MST 5:56 PM MST
Astronomical Twilight 5:38 AM MST 6:28 PM MST
Moon 8:14 AM MST (1/13) 7:33 PM MST (1/13)
Length of Visible Light 10h 39m
Length of Day
9h 40m
Waxing Crescent, 5% of the Moon is Illuminated
Jan 13
Waxing Crescent
Jan 18
First Quarter
Jan 26
Full
Feb 3
Last Quarter
Feb 10
New

Hourly Weather History & Observations

Time (MST) Temp. Windchill Dew Point Humidity Pressure Visibility Wind Dir Wind Speed Gust Speed Precip Events Conditions
12:55 AM -5.1 °F - -8.0 °F 87% 30.23 in 10.0 mi Calm Calm - N/A   Clear
1:55 AM -9.0 °F -22.3 °F -11.9 °F 87% 30.26 in 10.0 mi NNW 5.8 mph - N/A   Partly Cloudy
2:55 AM -4.0 °F -14.6 °F -7.1 °F 87% 30.23 in 10.0 mi NNW 4.6 mph - N/A   Mostly Cloudy
3:55 AM -9.0 °F -18.2 °F -13.0 °F 83% 30.25 in 10.0 mi North 3.5 mph - N/A   Overcast
4:55 AM -2.9 °F - -7.1 °F 82% 30.27 in 10.0 mi Calm Calm - N/A   Overcast
5:55 AM -5.1 °F - -9.0 °F 83% 30.31 in 10.0 mi Calm Calm - N/A   Overcast
6:55 AM -11.0 °F - -14.1 °F 86% 30.37 in 10.0 mi Calm Calm - N/A   Clear
7:55 AM -14.1 °F - -17.0 °F 87% 30.39 in 10.0 mi Calm Calm - N/A   Clear
8:55 AM -2.0 °F - -6.0 °F 83% 30.37 in 10.0 mi Calm Calm - N/A   Clear
9:55 AM 6.1 °F - -0.0 °F 76% 30.30 in 10.0 mi Calm Calm - N/A   Clear
10:55 AM 8.1 °F 1.4 °F 1.0 °F 73% 30.26 in 10.0 mi SE 3.5 mph - N/A   Clear
11:55 AM 12.0 °F 4.1 °F 3.9 °F 70% 30.23 in 10.0 mi East 4.6 mph - N/A   Clear
12:55 PM 12.9 °F 3.8 °F 5.0 °F 71% 30.22 in 10.0 mi East 5.8 mph - N/A   Clear
1:55 PM 14.0 °F 5.1 °F 3.9 °F 64% 30.24 in 10.0 mi East 5.8 mph - N/A   Partly Cloudy
2:55 PM 14.0 °F 3.9 °F 5.0 °F 67% 30.22 in 10.0 mi East 6.9 mph - N/A   Clear
3:55 PM 12.0 °F 0.5 °F 3.9 °F 70% 30.27 in 10.0 mi East 8.1 mph - N/A   Clear
4:55 PM 3.9 °F - -2.0 °F 76% 30.29 in 10.0 mi North - - N/A   Clear
5:55 PM -2.9 °F -15.0 °F -6.0 °F 87% 30.34 in 10.0 mi North 5.8 mph - N/A   Clear
6:55 PM -5.1 °F -13.6 °F -7.1 °F 91% 30.40 in 10.0 mi WNW 3.5 mph - N/A   Clear
7:55 PM -5.1 °F -15.8 °F -8.0 °F 87% 30.44 in 10.0 mi NNW 4.6 mph - N/A   Overcast
8:55 PM -0.0 °F - -4.0 °F 83% 30.37 in 10.0 mi Calm Calm - N/A   Overcast
10:55 PM -9.9 °F - -11.9 °F 91% 30.37 in 10.0 mi Calm Calm - N/A   Clear
11:55 PM -9.9 °F -19.2 °F -13.0 °F 86% 30.35 in 10.0 mi NNW 3.5 mph - N/A   Scattered Clouds